Showing default

MOZHAYETS 4, 27939

Orbit data source: Space-Track

MOZHAYETS 4, 27939 is a payload satellite owned by Mozhaiskiy (CIS) in SSO that was launched on Sat, 27 Sep 2003 UTC via a KOSMOS 11K65M launch vehicle from the Plesetsk Missile And Space Complex (PKMTR). Payload-class satellites include a variety of spacecraft equipped with specific instruments for various scientific and technological missions. These include communications satellites like Starlink; space stations such as the ISS; scientific satellites like the Hubble; Earth observation satellites from companies like Planet Labs, Umbra, and HawkEye 360; GPS; miniature CubeSats for education and research; and military/defense satellites.

Loading next visibility...
Identifier
27939, 2003-042A
Orbit
SSO
Last TLE update
4 hours ago
Origin
Manufacturer
NPO PM
Mission
Operational Civil Technology
Bus & Motor
STRELA-1M, Unknown motor
Mass
64 kg wet, 64 kg dry
Launch date (UTC)
2003-09-27 (22 years ago)
Launch vehicle
KOSMOS 11K65M
Launch site
Plesetsk Missile And Space Complex (PKMTR)
Object type
Payload
Rocket body
Debris
Shape & HBR
Poly, 1 m
Radar Cross Section
1.143 m², Medium (>0.1 m² and < 1m²)

Expand to show TLE details & history

TLE from 4 hours ago
0 MOZHAYETS 4
1 27939U 03042A   25129.20316932  .00001619  00000-0  26439-3 0  9998
2 27939  98.3259 297.9030 0012693 108.1896 305.9990 14.72272503156215
Epoch: 2025-05-09T04:52Z
Definitive object data (Epoch: 2025-05-09T04:52:33.829Z)
Latitude
53.34878°
Longitude
-13.78182°
Altitude
657.314 km
Speed
7.537 km/s
True Right ascension
19h 06m 29s
True Declination
53° 10' 54"
Sunlit
Object was in daylight at TLE epoch
Visualization TLE readout
Latitude
13.19211°
Longitude
179.61543°
Altitude
651.451 km
Speed
7.535 km/s
Apparent Right ascension
06h 40m 56s
Apparent Declination
-12° 57' 45"
Sunlit
Object is in daylight
Visualization observer readout
Local Sidereal Time
16:48:01
Azimuth
309.422° NW
Elevation
-53.368°
Doppler factor
1
Orbital elements
Apogee altitude
659.815 km
Perigee altitude
641.971 km
Semi-major axis
7,029.03 km
Eccentricity
0.0012693
Inclination
98.3259°
RAAN
297.903°
Arg. of periapsis
108.1896°
True anomaly
305.88122°
Mean anomaly
305.999°
Eccentric anomaly
305.94012°
Mean motion
3.68299 °/min
BSTAR
0.00026439
Orbital period
97.75 mins
Loading maneuver chart data...
Loading SW <> Apogee altitude chart data...
Loading historical data...
Loading historical data...
Loading historical data...
Loading historical data...
Loading historical data...
Loading historical data...
Loading historical data...
Other satellites on launch #42 in the year 2003 (2003-09-27 UTC)

MOZHAYETS 4 Visibility forecast

Observer location: undefined°, undefined°

Span
Click to sort rows by Start time (UTC) header in descending order
Start Az.
Max El. time (UTC)
Max El. Az.
Max El.
End time (UTC)
End Az.
7 mins2025-05-09 11:16:49.785Z170.921° S2025-05-09 11:19:49.785Z198.638° SSW43.276°2025-05-09 11:23:49.785Z343.482° N
5 mins2025-05-09 23:10:49.785Z61.188° ENE2025-05-09 23:12:49.785Z95.707° ESE19.522°2025-05-09 23:15:49.785Z141.043° SSE
6 mins2025-05-10 00:46:49.785Z345.058° N2025-05-10 00:49:49.785Z282.279° WNW29.141°2025-05-10 00:52:49.785Z230.352° WSW
|